Regional Weather Roundup
Issued by NWS New Orleans/Baton Rouge, LA

Home | Current Version | Previous Version | Text Only | Print | Product List | Glossary On
Versions: 1 2 3 4 5 6 7 8 9 10 11 12 13 14 15 16 17 18 19 20 21 22 23 24 25 26 27 28 29 30 31 32 33 34 35 36 37 38 39 40 41 42 43 44 45 46 47 48 49 50
494
ASUS44 KLIX 280405
RWRLIX
NEW ORLEANS REGIONAL WEATHER ROUNDUP
NATIONAL WEATHER SERVICE NEW ORLEANS LA
1000 PM CST TUE JAN 27 2015

NOTE: "FAIR" INDICATES FEW OR NO CLOUDS BELOW 12,000 FEET WITH NO
      SIGNIFICANT WEATHER AND/OR OBSTRUCTIONS TO VISIBILITY.
      SKY/WX - SKY CONDITION AND SIGNIFICANT WEATHER.
      TMP - AIR TEMPERATURE.     DP    - DEWPOINT TEMPERATURE.
      RH  - RELATIVE HUMIDITY.   PRES  - PRESSURE.
      HI  - HEAT INDEX.          WCI   - WIND CHILL INDEX.

*  THESE STATIONS ARE NOT NWS OR FAA STATIONS AND ARE NOT UNDER
   NWS QUALITY CONTROL.

LAZ038-040-048-061>063-065>067-069-280500-
SOUTHEAST LOUISIANA

CITY           SKY/WX    TMP DP  RH WIND       PRES   REMARKS
N.O. AUDUBON     N/A     54  50  86 MISG        N/A
N.O. INTL ARPT CLEAR     56  42  59 CALM      30.15R
N.O. LAKEFRONT CLEAR     58  44  60 N12       30.15R
N.O. DOWNTOWN*   N/A    N/A N/A N/A CALM      30.15S
SLIDELL        CLEAR     46  42  86 N6        30.15R
BATON ROUGE    CLEAR     48  39  71 CALM      30.16R
BOOTHVILLE     CLEAR     55  52  89 W9        30.15R
BELLE CHASSE   CLEAR     48  42  80 CALM      30.14S
BOGALUSA*        N/A     43  38  81 N6        30.18R
GALLIANO*      CLEAR     55  51  85 MISG      30.16R
NEW ROADS*       N/A     49  41  73 CALM      30.17R
GONZALES*        N/A     51  42  71 CALM      30.16R
HAMMOND*       CLEAR     48  39  71 N3        30.17S
HOUMA*         CLEAR     52  48  87 SW3       30.15S
PORT FOURCHON* CLEAR     57  54  88 W5        30.19R

$$

MSZ070-080>082-280500-
SOUTHERN MISSISSIPPI

CITY           SKY/WX    TMP DP  RH WIND       PRES   REMARKS
MCCOMB         CLEAR     56  34  43 N7        30.17R
GULFPORT       CLEAR     47  40  76 CALM      30.14R
BILOXI         CLEAR     52  45  78 CALM      30.14R
PASCAGOULA     CLEAR     43  41  93 N3        30.14R

$$

COASTAL OBSERVATIONS
LAKE AND NEARSHORE STATIONS

STATION/POSITION TIME  TEMP    WIND        PRES    WAVE
                       AIR SEA DIR/SP/G            HT/PER
                 (UTC) (F)     (DEG/KT/KT) (MB)    (FT/S)
PASCAGOULA       0300   55     330/  7/  9 1019.7
WAVELAND YACHT   0300   59     320/  4/  5 1019.8
GRAND ISLE       0300   60 64  280/ 10/ 13 1021.3
SOUTHWEST PASS   0300   59 47  260/ 13/ 14 1020.9
NEW CANAL        0300   61 54  350/  5/  6 1021.0
SHELL BEACH      0300   57 55  230/  7/  8 1020.5

OFFSHORE STATIONS

STATION/POSITION TIME  TEMP    WIND        PRES    WAVE
                       AIR SEA DIR/SP/G            HT/PER
                 (UTC) (F)     (DEG/KT/KT) (MB)    (FT/S)
64 S DAUPHIN ISL 0254   66 66  300/ 14/ 16 1020.5    3/ 6

$$




USA.gov is the U.S. government's official web portal to all federal, state and local government web resources and services.